Location: Luxembourg
(49.6117°N, 6.1300°E)
Time: 05:06:42
(UTC+01:00)

N. Korean satellite - Pass Details

Date: 01 February 2019
Orbit: 457 x 510 km, 97.2° (Epoch: 16 February)

Event Time Altitude Azimuth Distance (km) Brightness Sun altitude
Rises 05:36:24 0° 33° (NNE) 2,590 10.7 -24.7°
Reaches altitude 10° 05:40:06 10° 72° (ENE) 1,683 10.3 -24.1°
Maximum altitude 05:41:01 11° 87° (E) 1,631 10.3 -24.0°
Drops below altitude 10° 05:41:55 10° 102° (ESE) 1,671 10.3 -23.8°
Sets 05:45:32 0° 141° (SE) 2,526 10.7 -23.2°
